CEB4306 RPVM-RPLC

Flight info

Callsign CEB4306
Flight time 1h 2m
Altitude 36000
Route MOLOC4P MOLOC W11 MIA W16 OLIVA OLIVA5R
Aircraft A21N/L-V/N

Departure

Time 2026-04-28 10:50
Airport Mactan Cebu International Airport (RPVM)

Arrival

Time 2026-04-28 11:53
Airport Clark International Airport / Clark Air Base (RPLC)
Time Latitude Longitude Altitude Speed Heading
2026-04-28 10:37 10.31551 123.97976 37 ft 0 kts 315°
2026-04-28 10:42 10.31543 123.97984 37 ft 2 kts 313°
2026-04-28 10:42 10.31532 123.97996 37 ft 2 kts 316°
2026-04-28 10:43 10.31525 123.98003 37 ft 2 kts 315°
2026-04-28 10:43 10.31514 123.98014 37 ft 0 kts 315°
2026-04-28 10:43 10.31506 123.98024 37 ft 2 kts 286°
2026-04-28 10:43 10.31505 123.98038 37 ft 2 kts 255°
2026-04-28 10:44 10.31510 123.98050 37 ft 0 kts 229°
2026-04-28 10:44 10.31515 123.98055 37 ft 1 kts 224°
2026-04-28 10:44 10.31516 123.98055 37 ft 0 kts 225°
2026-04-28 10:45 10.31509 123.98048 37 ft 2 kts 226°
2026-04-28 10:46 10.31487 123.98025 37 ft 6 kts 226°
2026-04-28 10:46 10.31451 123.97987 37 ft 8 kts 225°
2026-04-28 10:46 10.31403 123.97938 37 ft 10 kts 225°
2026-04-28 10:46 10.31344 123.97899 37 ft 10 kts 179°
2026-04-28 10:47 10.31280 123.97943 37 ft 11 kts 135°
2026-04-28 10:47 10.31221 123.97982 37 ft 10 kts 181°
2026-04-28 10:47 10.31160 123.97939 37 ft 11 kts 225°
2026-04-28 10:47 10.31100 123.97878 37 ft 12 kts 225°
2026-04-28 10:48 10.31034 123.97813 37 ft 13 kts 223°
2026-04-28 10:48 10.30963 123.97743 37 ft 14 kts 224°
2026-04-28 10:48 10.29956 123.96733 37 ft 15 kts 225°
2026-04-28 10:48 10.29865 123.96724 37 ft 15 kts 136°
2026-04-28 10:49 10.29789 123.96803 37 ft 15 kts 134°
2026-04-28 10:49 10.29720 123.96876 37 ft 8 kts 117°
2026-04-28 10:49 10.29733 123.96915 37 ft 0 kts 47°
2026-04-28 10:49 10.29735 123.96918 37 ft 3 kts 47°
2026-04-28 10:50 10.29871 123.97056 37 ft 62 kts 45°
2026-04-28 10:50 10.30159 123.97344 37 ft 107 kts 45°
2026-04-28 10:50 10.31096 123.98290 133 ft 167 kts 46°
2026-04-28 10:50 10.31904 123.99169 633 ft 174 kts 49°
2026-04-28 10:51 10.32758 124.00066 1187 ft 184 kts 46°
2026-04-28 10:51 10.33715 124.01019 1664 ft 200 kts 47°
2026-04-28 10:51 10.34707 124.02055 1993 ft 213 kts 47°
2026-04-28 10:51 10.35770 124.03188 2387 ft 224 kts 46°
2026-04-28 10:52 10.37072 124.04052 2958 ft 230 kts 18°
2026-04-28 10:52 10.38675 124.04103 3588 ft 237 kts 348°
2026-04-28 10:52 10.40232 124.03482 4216 ft 242 kts 339°
2026-04-28 10:52 10.41777 124.02782 4819 ft 246 kts 339°
2026-04-28 10:53 10.43350 124.02072 5442 ft 249 kts 339°
2026-04-28 10:53 10.44934 124.01366 6070 ft 252 kts 339°
2026-04-28 10:53 10.46544 124.00653 6682 ft 256 kts 339°
2026-04-28 10:53 10.48194 123.99926 7300 ft 258 kts 339°
2026-04-28 10:54 10.49844 123.99199 7931 ft 261 kts 339°
2026-04-28 10:54 10.51521 123.98462 8565 ft 263 kts 339°
2026-04-28 10:54 10.53202 123.97723 9189 ft 265 kts 339°
2026-04-28 10:54 10.54894 123.96978 9787 ft 268 kts 339°
2026-04-28 10:55 10.56578 123.96238 10374 ft 270 kts 339°
2026-04-28 10:55 10.58295 123.95481 10962 ft 272 kts 338°
2026-04-28 10:55 10.60051 123.94710 11544 ft 274 kts 338°
2026-04-28 10:55 10.61805 123.93939 12092 ft 276 kts 338°
2026-04-28 10:56 10.63559 123.93166 12642 ft 278 kts 337°
2026-04-28 10:56 10.65231 123.92159 13163 ft 282 kts 323°
2026-04-28 10:56 10.66666 123.90752 13700 ft 285 kts 313°
2026-04-28 10:56 10.67962 123.89220 14210 ft 288 kts 312°
2026-04-28 10:57 10.69251 123.87660 14701 ft 290 kts 312°
2026-04-28 10:57 10.70555 123.86090 15200 ft 291 kts 313°
2026-04-28 10:57 10.71862 123.84529 15681 ft 293 kts 313°
2026-04-28 10:57 10.73181 123.82961 16143 ft 295 kts 314°
2026-04-28 10:58 10.74537 123.81357 16599 ft 297 kts 314°
2026-04-28 10:58 10.75892 123.79757 17044 ft 299 kts 314°
2026-04-28 10:58 10.77243 123.78161 17476 ft 301 kts 314°
2026-04-28 10:58 10.78616 123.76540 17900 ft 303 kts 314°
2026-04-28 10:59 10.80000 123.74907 18307 ft 305 kts 314°
2026-04-28 10:59 10.81392 123.73266 18709 ft 308 kts 314°
2026-04-28 10:59 10.82790 123.71616 19108 ft 310 kts 313°
2026-04-28 10:59 10.84195 123.69957 19486 ft 312 kts 314°
2026-04-28 11:00 10.85626 123.68263 19849 ft 315 kts 313°
2026-04-28 11:00 10.87053 123.66576 20204 ft 318 kts 313°
2026-04-28 11:00 10.88503 123.64859 20552 ft 321 kts 313°
2026-04-28 11:00 10.89974 123.63119 20890 ft 324 kts 313°
2026-04-28 11:01 10.91432 123.61391 21221 ft 327 kts 313°
2026-04-28 11:01 10.92928 123.59619 21555 ft 329 kts 313°
2026-04-28 11:01 10.94430 123.57840 21893 ft 332 kts 313°
2026-04-28 11:01 10.95936 123.56055 22226 ft 334 kts 313°
2026-04-28 11:02 10.97450 123.54262 22573 ft 336 kts 313°
2026-04-28 11:02 10.98979 123.52460 22916 ft 338 kts 314°
2026-04-28 11:02 11.00643 123.50783 23255 ft 339 kts 321°
2026-04-28 11:02 11.02518 123.49290 23604 ft 339 kts 327°
2026-04-28 11:03 11.04447 123.47932 23929 ft 341 kts 328°
2026-04-28 11:03 11.06441 123.46556 24252 ft 344 kts 328°
2026-04-28 11:03 11.08408 123.45198 24574 ft 346 kts 327°
2026-04-28 11:03 11.10434 123.43795 24909 ft 349 kts 327°
2026-04-28 11:04 11.12432 123.42406 25231 ft 351 kts 327°
2026-04-28 11:04 11.14451 123.41001 25568 ft 352 kts 327°
2026-04-28 11:04 11.16481 123.39585 25904 ft 354 kts 327°
2026-04-28 11:04 11.18509 123.38171 26231 ft 356 kts 327°
2026-04-28 11:05 11.20579 123.36725 26557 ft 357 kts 327°
2026-04-28 11:05 11.22633 123.35289 26873 ft 359 kts 327°
2026-04-28 11:05 11.24686 123.33855 27176 ft 361 kts 326°
2026-04-28 11:05 11.26768 123.32398 27481 ft 363 kts 326°
2026-04-28 11:06 11.28839 123.30951 27776 ft 365 kts 326°
2026-04-28 11:06 11.30949 123.29474 28080 ft 366 kts 326°
2026-04-28 11:06 11.33065 123.27994 28397 ft 368 kts 326°
2026-04-28 11:06 11.35187 123.26509 28708 ft 369 kts 326°
2026-04-28 11:07 11.37296 123.25033 29009 ft 371 kts 326°
2026-04-28 11:07 11.39442 123.23531 29309 ft 373 kts 326°
2026-04-28 11:07 11.41579 123.22035 29597 ft 375 kts 326°
2026-04-28 11:07 11.43740 123.20523 29865 ft 378 kts 326°
2026-04-28 11:08 11.45915 123.18999 30135 ft 380 kts 326°
2026-04-28 11:08 11.48110 123.17461 30422 ft 382 kts 326°
2026-04-28 11:08 11.50295 123.15931 30693 ft 385 kts 326°
2026-04-28 11:08 11.52504 123.14385 30948 ft 388 kts 326°
2026-04-28 11:09 11.54736 123.12819 31197 ft 390 kts 326°
2026-04-28 11:09 11.56990 123.11238 31448 ft 393 kts 326°
2026-04-28 11:09 11.59263 123.09645 31707 ft 396 kts 326°
2026-04-28 11:09 11.61549 123.08041 31971 ft 398 kts 326°
2026-04-28 11:10 11.63837 123.06435 32231 ft 401 kts 326°
2026-04-28 11:10 11.66120 123.04833 32493 ft 403 kts 326°
2026-04-28 11:10 11.68432 123.03210 32762 ft 405 kts 326°
2026-04-28 11:10 11.70779 123.01562 33052 ft 407 kts 326°
2026-04-28 11:11 11.73095 122.99938 33365 ft 408 kts 326°
2026-04-28 11:11 11.75453 122.98284 33690 ft 409 kts 325°
2026-04-28 11:11 11.77796 122.96641 34001 ft 410 kts 325°
2026-04-28 11:11 11.80171 122.94973 34306 ft 411 kts 325°
2026-04-28 11:12 11.82512 122.93328 34596 ft 412 kts 324°
2026-04-28 11:12 11.84877 122.91667 34877 ft 414 kts 324°
2026-04-28 11:12 11.87270 122.89983 35123 ft 416 kts 324°
2026-04-28 11:12 11.89663 122.88299 35354 ft 417 kts 324°
2026-04-28 11:13 11.92056 122.86616 35578 ft 419 kts 324°
2026-04-28 11:13 11.94474 122.84915 35797 ft 421 kts 324°
2026-04-28 11:13 11.96900 122.83207 35859 ft 426 kts 324°
2026-04-28 11:14 12.01843 122.79726 35866 ft 438 kts 324°
2026-04-28 11:14 12.06907 122.76159 35867 ft 449 kts 324°
2026-04-28 11:15 12.12113 122.72492 35867 ft 453 kts 324°
2026-04-28 11:15 12.17319 122.68824 35866 ft 454 kts 324°
2026-04-28 11:16 12.22527 122.65151 35866 ft 456 kts 324°
2026-04-28 11:16 12.27747 122.61463 35867 ft 457 kts 323°
2026-04-28 11:17 12.32976 122.57767 35869 ft 456 kts 324°
2026-04-28 11:17 12.38210 122.54070 35869 ft 454 kts 324°
2026-04-28 11:18 12.43393 122.50412 35872 ft 452 kts 324°
2026-04-28 11:18 12.48562 122.46765 35876 ft 452 kts 324°
2026-04-28 11:19 12.53743 122.43102 35884 ft 452 kts 323°
2026-04-28 11:19 12.58940 122.39421 35888 ft 452 kts 323°
2026-04-28 11:20 12.64130 122.35742 35888 ft 453 kts 323°
2026-04-28 11:20 12.69294 122.32080 35888 ft 452 kts 323°
2026-04-28 11:21 12.74505 122.28385 35890 ft 451 kts 323°
2026-04-28 11:21 12.79659 122.24728 35889 ft 452 kts 323°
2026-04-28 11:22 12.84833 122.21055 35889 ft 452 kts 323°
2026-04-28 11:22 12.89987 122.17394 35887 ft 451 kts 323°
2026-04-28 11:23 12.95165 122.13716 35886 ft 450 kts 323°
2026-04-28 11:23 13.00288 122.10072 35888 ft 450 kts 323°
2026-04-28 11:24 13.05427 122.06415 35896 ft 449 kts 323°
2026-04-28 11:24 13.10581 122.02747 35910 ft 450 kts 323°
2026-04-28 11:25 13.15732 121.99079 35934 ft 450 kts 323°
2026-04-28 11:25 13.20805 121.95463 35948 ft 450 kts 322°
2026-04-28 11:26 13.25942 121.91802 35955 ft 450 kts 322°
2026-04-28 11:26 13.31084 121.88132 35891 ft 450 kts 322°
2026-04-28 11:26 13.33664 121.86290 35596 ft 448 kts 322°
2026-04-28 11:27 13.36215 121.84469 35307 ft 445 kts 322°
2026-04-28 11:27 13.38756 121.82656 35020 ft 441 kts 322°
2026-04-28 11:27 13.41248 121.80875 34736 ft 438 kts 322°
2026-04-28 11:27 13.43769 121.79075 34449 ft 437 kts 322°
2026-04-28 11:28 13.46267 121.77288 34166 ft 438 kts 322°
2026-04-28 11:28 13.48744 121.75516 33883 ft 439 kts 323°
2026-04-28 11:28 13.51248 121.73726 33601 ft 440 kts 322°
2026-04-28 11:28 13.53767 121.71924 33318 ft 439 kts 322°
2026-04-28 11:29 13.56288 121.70121 33038 ft 437 kts 322°
2026-04-28 11:29 13.58782 121.68335 32757 ft 435 kts 322°
2026-04-28 11:29 13.61236 121.66577 32490 ft 433 kts 323°
2026-04-28 11:29 13.63734 121.64784 32238 ft 431 kts 323°
2026-04-28 11:30 13.66169 121.63040 31987 ft 429 kts 323°
2026-04-28 11:30 13.71063 121.59537 31477 ft 425 kts 323°
2026-04-28 11:30 13.73464 121.57822 31214 ft 424 kts 323°
2026-04-28 11:31 13.75910 121.56074 30934 ft 422 kts 323°
2026-04-28 11:31 13.78286 121.54373 30595 ft 420 kts 323°
2026-04-28 11:31 13.80691 121.52651 30192 ft 418 kts 323°
2026-04-28 11:31 13.83077 121.50941 29783 ft 415 kts 324°
2026-04-28 11:32 13.85425 121.49257 29361 ft 412 kts 324°
2026-04-28 11:32 13.87759 121.47583 28955 ft 408 kts 324°
2026-04-28 11:32 13.90089 121.45911 28535 ft 405 kts 324°
2026-04-28 11:32 13.92389 121.44263 28125 ft 402 kts 324°
2026-04-28 11:33 13.94697 121.42607 27690 ft 399 kts 324°
2026-04-28 11:33 13.96964 121.40980 27236 ft 396 kts 324°
2026-04-28 11:33 13.99198 121.39375 26753 ft 395 kts 324°
2026-04-28 11:33 14.01455 121.37752 26273 ft 393 kts 324°
2026-04-28 11:34 14.03688 121.36147 25778 ft 392 kts 324°
2026-04-28 11:34 14.05923 121.34541 25282 ft 390 kts 324°
2026-04-28 11:34 14.08142 121.32946 24808 ft 389 kts 324°
2026-04-28 11:34 14.10342 121.31365 24319 ft 388 kts 324°
2026-04-28 11:35 14.12572 121.29761 23826 ft 387 kts 324°
2026-04-28 11:35 14.14762 121.28185 23345 ft 386 kts 324°
2026-04-28 11:35 14.16954 121.26606 22854 ft 385 kts 324°
2026-04-28 11:35 14.19141 121.25029 22352 ft 385 kts 324°
2026-04-28 11:36 14.21354 121.23434 21842 ft 385 kts 324°
2026-04-28 11:36 14.23541 121.21858 21370 ft 383 kts 324°
2026-04-28 11:36 14.25701 121.20303 20930 ft 381 kts 324°
2026-04-28 11:36 14.27881 121.18735 20513 ft 377 kts 324°
2026-04-28 11:37 14.30021 121.17195 20101 ft 374 kts 325°
2026-04-28 11:37 14.32144 121.15664 19692 ft 371 kts 325°
2026-04-28 11:37 14.34243 121.14153 19279 ft 368 kts 325°
2026-04-28 11:37 14.36355 121.12630 18839 ft 366 kts 325°
2026-04-28 11:38 14.38439 121.11125 18406 ft 363 kts 325°
2026-04-28 11:38 14.40489 121.09645 17950 ft 360 kts 325°
2026-04-28 11:38 14.42543 121.08161 17538 ft 358 kts 325°
2026-04-28 11:38 14.44571 121.06697 17144 ft 355 kts 325°
2026-04-28 11:39 14.46598 121.05235 16718 ft 353 kts 325°
2026-04-28 11:39 14.48589 121.03797 16279 ft 351 kts 325°
2026-04-28 11:39 14.50580 121.02359 15838 ft 350 kts 325°
2026-04-28 11:39 14.52617 121.00938 15384 ft 349 kts 327°
2026-04-28 11:40 14.54657 120.99564 14933 ft 348 kts 327°
2026-04-28 11:40 14.56686 120.98201 14489 ft 347 kts 327°
2026-04-28 11:40 14.58706 120.96841 14085 ft 346 kts 327°
2026-04-28 11:40 14.60704 120.95490 13658 ft 345 kts 327°
2026-04-28 11:41 14.62697 120.94141 13190 ft 343 kts 327°
2026-04-28 11:41 14.64684 120.92794 12790 ft 341 kts 327°
2026-04-28 11:41 14.66663 120.91452 12381 ft 340 kts 327°
2026-04-28 11:41 14.68639 120.90112 11924 ft 340 kts 327°
2026-04-28 11:42 14.70626 120.88763 11452 ft 340 kts 327°
2026-04-28 11:42 14.72605 120.87421 11006 ft 339 kts 327°
2026-04-28 11:42 14.74555 120.86101 10560 ft 338 kts 327°
2026-04-28 11:42 14.76535 120.84759 10136 ft 335 kts 327°
2026-04-28 11:43 14.78451 120.83458 9947 ft 325 kts 327°
2026-04-28 11:43 14.80308 120.82196 9754 ft 315 kts 327°
2026-04-28 11:43 14.82133 120.80956 9476 ft 309 kts 327°
2026-04-28 11:43 14.83909 120.79749 9132 ft 306 kts 327°
2026-04-28 11:44 14.85688 120.78539 8684 ft 306 kts 327°
2026-04-28 11:44 14.87455 120.77338 8381 ft 301 kts 327°
2026-04-28 11:44 14.89192 120.76157 8047 ft 298 kts 327°
2026-04-28 11:44 14.90941 120.74968 7595 ft 298 kts 328°
2026-04-28 11:45 14.92677 120.73787 7177 ft 298 kts 328°
2026-04-28 11:45 14.94336 120.72525 6761 ft 298 kts 315°
2026-04-28 11:45 14.95320 120.70697 6425 ft 294 kts 284°
2026-04-28 11:45 14.95639 120.68600 6047 ft 292 kts 277°
2026-04-28 11:46 14.95886 120.66541 5693 ft 290 kts 277°
2026-04-28 11:46 14.96153 120.64471 5335 ft 288 kts 278°
2026-04-28 11:46 14.96435 120.62446 5027 ft 284 kts 279°
2026-04-28 11:46 14.96736 120.60478 4965 ft 269 kts 282°
2026-04-28 11:47 14.97196 120.58658 4877 ft 256 kts 289°
2026-04-28 11:47 14.97805 120.56932 4473 ft 255 kts 292°
2026-04-28 11:47 14.98435 120.55254 4114 ft 247 kts 292°
2026-04-28 11:47 14.99038 120.53651 3973 ft 232 kts 292°
2026-04-28 11:48 14.99614 120.52106 3972 ft 230 kts 292°
2026-04-28 11:48 15.00429 120.50713 3932 ft 227 kts 320°
2026-04-28 11:48 15.01784 120.50021 3990 ft 207 kts 352°
2026-04-28 11:48 15.03187 120.50129 3729 ft 197 kts 16°
2026-04-28 11:49 15.04464 120.50579 3447 ft 191 kts 23°
2026-04-28 11:49 15.05655 120.51082 3165 ft 179 kts 25°
2026-04-28 11:49 15.06783 120.51556 2893 ft 169 kts 24°
2026-04-28 11:49 15.07857 120.51990 2665 ft 156 kts 23°
2026-04-28 11:50 15.08827 120.52375 2438 ft 147 kts 24°
2026-04-28 11:50 15.09787 120.52754 2236 ft 146 kts 24°
2026-04-28 11:50 15.10731 120.53127 2029 ft 145 kts 24°
2026-04-28 11:50 15.11683 120.53503 1812 ft 145 kts 24°
2026-04-28 11:51 15.12625 120.53874 1596 ft 144 kts 24°
2026-04-28 11:51 15.13572 120.54249 1379 ft 144 kts 24°
2026-04-28 11:51 15.14514 120.54621 1166 ft 144 kts 24°
2026-04-28 11:51 15.15442 120.54989 957 ft 144 kts 24°
2026-04-28 11:52 15.16392 120.55368 743 ft 144 kts 24°
2026-04-28 11:52 15.17330 120.55736 544 ft 145 kts 25°
2026-04-28 11:52 15.18242 120.56106 453 ft 124 kts 20°
2026-04-28 11:52 15.18802 120.56331 439 ft 53 kts 21°
2026-04-28 11:53 15.19031 120.56416 432 ft 11 kts 21°
2026-04-28 11:53 15.19106 120.56409 432 ft 12 kts 318°
2026-04-28 11:53 15.19138 120.56354 435 ft 13 kts 290°
2026-04-28 11:53 15.19184 120.56227 439 ft 11 kts 292°
2026-04-28 11:54 15.19246 120.56203 439 ft 13 kts 14°
2026-04-28 11:54 15.19355 120.56245 436 ft 15 kts 22°
2026-04-28 11:54 15.19418 120.56239 436 ft 9 kts 313°
2026-04-28 11:54 15.19444 120.56184 438 ft 7 kts 291°
2026-04-28 11:55 15.19460 120.56139 440 ft 5 kts 291°
2026-04-28 11:55 15.19473 120.56107 441 ft 4 kts 297°
2026-04-28 11:55 15.19487 120.56087 442 ft 3 kts 311°
2026-04-28 11:55 15.19535 120.56049 442 ft 5 kts 326°
2026-04-28 11:56 15.19546 120.56038 442 ft 0 kts 296°
2026-04-28 11:56 15.19548 120.56035 442 ft 0 kts 296°
2026-04-28 11:56 15.19551 120.56027 442 ft 1 kts 292°
2026-04-28 11:56 15.19553 120.56023 442 ft 0 kts 292°
2026-04-28 11:57 15.19554 120.56021 442 ft 0 kts 292°